Temperature
19 19 19 19 19 19 18 18 18 18 18 18 18 18 18 18 18 18 18 18 19 18 18 19 19 19 19 19 18 18 18 18 18 18 18 17 17 17 17 17 17 17 17
19 19 19 19 19 19 19 19 19 18 18 19 19 18 18 18 18 19 19 18 18 19 19 19 19 19 19 19 19 18 18 18 18 18 18 18 18 18 18 18 18 18 17
19 19 18 18 18 18 18 18 18 18 18 18 18 18 18 18 18 19 19 19 19 19 19 19 19 19 19 19 19 19 18 18 18 18 18 18 18 18 18 18 18 18 18
18 18 18 18 18 18 18 18 18 18 18 17 18 18 18 18 18 19 19 19 19 19 19 19 19 19 19 19 19 19 19 18 18 18 18 18 19 18 18 18 18 18 18
18 17 17 17 17 17 17 17 17 17 17 17 17 17 18 18 18 18 19 19 19 19 19 18 18 19 19 19 19 19 19 19 18 18 19 19 19 19 19 19 18 18 18
18 17 17 17 17 17 17 17 17 17 17 17 17 17 18 18 18 18 18 19 19 19 18 18 18 18 19 19 19 19 19 19 18 18 19 19 19 19 19 19 18 18 18
17 17 17 16 16 16 16 16 16 16 16 16 16 17 17 18 18 19 19 19 19 19 19 18 18 18 18 19 19 19 19 18 18 18 19 19 19 19 19 19 18 18 18
17 17 16 16 16 16 16 15 15 15 15 15 15 16 16 17 18 19 19 19 19 19 18 18 18 18 18 18 19 19 18 18 18 18 19 19 19 19 19 19 18 18 18
17 17 16 16 15 16 15 15 15 15 15 15 15 15 16 17 18 18 19 19 19 19 19 19 18 18 18 18 18 18 18 18 18 18 18 18 19 19 19 19 18 18 18
18 17 16 16 16 16 15 15 15 15 15 15 15 15 15 15 15 16 17 18 19 19 19 19 18 19 19 18 18 18 18 18 17 17 18 18 18 18 18 18 18 17 17
18 17 16 16 16 16 15 15 16 15 15 15 15 15 15 15 15 15 15 17 18 18 19 19 19 18 18 18 18 18 18 18 17 17 17 17 17 18 17 17 17 17 17
18 17 17 16 16 16 16 16 16 15 15 15 15 14 14 14 15 15 15 16 16 17 18 18 18 18 18 18 17 17 17 17 17 17 17 17 17 17 17 17 16 16 16
17 17 17 16 16 16 16 15 15 15 15 15 15 14 14 14 14 14 14 15 16 17 17 18 18 17 17 17 17 17 17 17 16 16 16 16 16 16 16 16 16 16 16
17 17 17 16 16 16 15 15 15 15 14 14 15 14 14 14 14 14 14 14 15 16 16 17 17 17 17 17 16 16 16 16 16 15 15 15 15 15 15 15 15 15 16
16 16 16 15 15 15 15 15 15 14 14 14 14 14 14 14 14 14 14 14 14 14 15 16 16 16 16 16 16 15 15 15 15 14 14 14 15 15 15 15 15 15 15
15 15 15 15 14 14 14 14 14 14 14 14 14 14 14 14 14 14 14 14 14 14 15 15 15 15 15 15 15 14 14 14 14 14 14 14 14 14 14 14 14 14 14
14 14 14 14 14 14 14 14 14 14 14 14 14 14 14 14 14 14 14 14 14 14 14 14 14 14 14 14 14 14 14 14 14 14 13 13 13 13 13 13 13 14 14
13 14 14 13 14 14 14 14 14 14 14 14 14 14 14 14 14 14 14 14 14 14 14 14 13 13 14 13 13 13 13 13 13 13 12 12 12 12 13 13 13 13 13
12 13 13 13 13 13 13 13 13 13 13 13 13 13 13 13 14 14 14 14 14 14 14 14 13 13 13 13 12 12 12 12 12 12 12 12 12 12 12 12 12 13 13
10 11 11 12 12 13 13 13 13 13 13 13 13 13 13 13 13 13 13 14 14 14 14 13 13 12 12 12 12 12 11 11 11 11 11 11 11 12 12 12 12 12 12
9 9 10 10 11 11 12 12 13 13 13 13 13 13 13 13 13 13 13 13 13 13 13 13 12 12 11 11 11 11 11 11 11 11 11 11 11 11 11 11 11 11 11
9 9 9 10 10 10 11 11 12 12 13 13 12 12 12 13 13 12 12 13 13 13 13 12 12 11 11 11 11 11 11 11 11 11 11 10 10 11 11 11 10 10 10
9 9 9 9 10 10 10 11 11 12 12 12 12 12 12 12 12 12 12 12 12 12 12 12 12 11 11 11 11 11 12 12 12 11 11 10 10 10 10 10 10 10 9
9 9 9 9 9 9 10 10 11 11 11 12 12 12 12 12 12 11 11 11 11 11 11 11 11 11 11 11 11 12 12 12 12 12 11 11 10 10 10 10 9 9 9
9 9 9 9 9 9 9 10 10 10 11 11 11 12 12 12 12 11 11 11 11 11 11 11 11 11 11 11 11 12 12 12 12 12 12 11 10 10 10 9 9 9 8
9 9 9 9 9 9 9 9 9 10 10 11 11 11 12 12 11 11 11 11 11 11 11 11 11 11 11 12 12 12 12 12 12 12 12 11 11 10 9 9 9 9 8
Wind_Speed
4 4 3 2 5 5 3 3 3 4 3 3 5 5 5 7 6 6 7 14 18 19 19 19 19 20 20 21 21 21 22 23 24 25 27 27 27 26 25 24 24 23 22
2 3 4 4 4 4 5 3 4 4 4 4 7 7 7 8 7 8 8 11 17 20 21 20 20 21 22 22 22 23 23 24 24 25 26 27 28 28 27 26 26 25 24
3 4 4 5 4 5 6 5 6 5 6 7 9 10 9 9 9 9 11 12 13 17 21 22 23 23 23 23 23 23 24 25 25 25 26 27 28 29 29 28 27 26 26
4 3 4 5 4 5 5 6 7 6 6 7 7 8 8 9 11 10 11 13 13 15 18 24 26 25 25 25 24 24 24 25 25 25 25 26 28 29 29 29 28 27 27
2 1 2 3 2 3 4 6 3 4 5 6 7 8 9 10 10 13 12 12 14 15 15 18 24 26 26 26 25 24 24 24 25 25 25 26 27 28 29 29 29 28 28
2 3 4 3 3 4 4 4 5 5 5 6 9 9 7 9 9 11 12 12 11 15 17 17 16 19 26 27 25 25 25 25 25 25 25 25 26 27 28 29 29 29 28
2 1 4 4 4 4 5 6 5 7 7 6 7 8 8 10 11 10 11 11 12 12 13 14 14 14 14 25 26 26 26 26 25 25 25 25 25 26 27 28 29 29 29
2 3 3 3 5 5 6 6 5 4 6 6 6 7 7 8 8 11 10 11 12 10 11 13 11 11 11 10 17 26 27 26 25 23 23 23 23 24 25 27 27 28 28
3 1 1 3 4 5 5 5 5 6 6 6 6 5 5 5 7 6 6 7 9 9 9 8 9 9 13 11 11 21 27 26 23 22 20 19 19 21 23 25 26 27 27
4 4 3 3 3 5 6 6 5 5 6 6 6 5 7 8 7 7 8 8 7 8 9 8 7 7 8 8 8 10 18 20 18 16 15 14 15 17 19 22 24 26 27
6 6 6 4 3 5 6 5 6 6 5 6 6 6 7 8 8 7 9 8 7 6 5 5 4 2 2 3 4 8 11 10 9 8 7 7 8 11 14 18 21 24 25
6 8 7 5 3 4 5 5 6 7 7 7 6 7 7 7 7 7 7 8 8 7 4 2 2 2 4 6 8 10 11 11 9 6 4 3 1 0 2 4 8 12 16
4 5 5 3 3 4 5 6 6 7 8 8 7 7 7 8 8 8 8 8 8 6 4 0 2 4 5 8 10 14 13 13 12 11 11 11 11 11 10 8 6 5 1
3 2 4 4 5 6 6 6 6 7 7 7 9 8 7 8 7 7 7 8 8 6 4 2 2 4 5 7 11 13 11 14 14 14 14 14 14 15 15 14 14 13 12
8 4 2 4 5 6 6 6 6 7 7 7 7 8 7 7 7 7 7 7 7 6 5 3 2 4 6 8 10 11 11 14 15 15 15 15 15 16 16 16 16 16 16
10 10 9 7 6 7 7 7 6 7 6 7 6 7 7 7 7 6 7 7 8 7 5 2 2 6 8 9 11 12 13 16 16 16 16 16 16 16 17 17 17 17 17
9 9 10 9 9 9 8 7 7 7 7 6 7 7 7 7 6 6 6 7 7 7 6 2 3 6 9 11 10 11 12 11 13 17 17 17 17 17 18 18 17 17 18
9 9 9 10 11 11 10 8 8 7 6 6 6 6 7 7 7 7 6 7 7 7 6 7 5 5 8 10 10 10 9 11 12 16 18 18 17 18 18 18 18 17 17
10 10 10 10 10 11 11 10 8 7 6 5 4 5 5 6 7 7 7 6 6 6 7 9 7 6 5 7 9 10 11 9 11 15 17 17 17 18 17 17 17 17 18
11 11 10 10 10 11 12 12 10 7 6 5 3 3 3 4 6 7 6 4 3 5 9 11 10 8 6 6 8 10 10 8 8 11 12 14 17 18 17 17 17 18 18
13 10 10 10 10 10 11 11 10 10 7 6 3 2 2 4 5 5 3 1 3 7 9 11 11 9 7 6 6 7 9 8 8 9 9 9 9 9 12 14 16 17 18
12 11 11 10 10 11 12 12 11 9 6 6 4 4 5 4 5 7 9 9 8 9 10 10 10 10 7 5 4 6 8 10 7 7 8 7 7 8 6 10 12 15 16
12 11 11 10 9 9 10 10 11 8 7 6 5 5 5 7 6 6 8 11 13 14 12 10 11 9 6 5 4 5 7 8 6 8 8 8 8 8 6 10 12 13 14
11 10 10 10 9 9 8 7 9 9 9 7 7 7 8 9 7 7 7 8 9 9 10 9 9 8 6 4 4 6 7 7 6 7 9 8 8 8 8 8 11 12 13
9 10 10 10 9 8 5 5 6 6 8 9 9 9 11 10 11 10 8 9 9 8 10 14 13 12 11 8 6 5 6 6 6 5 5 5 7 7 5 5 8 11 10
9 10 10 9 9 7 3 5 7 5 8 7 7 9 13 13 14 11 9 10 10 9 10 12 10 10 8 8 10 7 4 3 6 4 3 4 8 6 4 4 5 8 8
Wind_Direction
239 267 282 282 280 279 250 219 243 250 251 276 284 277 270 265 267 258 216 198 197 206 214 216 218 223 225 226 226 226 225 225 224 223 222 222 221 220 220 218 218 218 220
231 259 267 266 270 289 304 294 273 260 262 263 265 263 258 260 257 251 247 231 219 214 217 222 225 227 226 224 224 225 225 225 224 223 222 222 221 221 221 219 218 218 218
222 241 254 256 253 263 265 264 256 240 242 242 242 242 243 244 241 239 237 238 236 226 224 227 229 227 225 223 222 223 224 224 224 223 223 221 220 220 220 221 220 219 218
223 235 251 254 247 250 245 248 246 248 246 246 246 245 242 238 238 236 235 234 234 236 228 226 228 228 225 222 221 220 221 223 223 224 224 221 219 218 220 221 221 221 220
217 211 275 270 256 270 268 274 272 246 260 260 258 247 238 238 238 240 236 235 233 233 233 232 227 226 226 224 221 219 220 221 223 224 224 222 219 218 219 220 221 222 221
66 50 312 354 354 312 295 305 326 302 280 270 273 271 254 243 238 237 237 237 233 231 231 234 229 228 226 224 220 218 219 220 222 223 223 223 221 219 219 220 221 222 222
75 39 293 353 318 297 321 325 312 303 295 285 280 277 262 249 241 234 230 232 232 227 225 224 224 225 222 222 220 218 219 220 221 221 222 223 223 221 221 221 222 222 222
174 275 22 338 319 331 307 285 290 293 297 301 301 298 288 275 259 252 230 224 228 226 225 225 218 217 222 211 219 223 225 225 224 222 222 223 224 223 223 223 223 222 222
183 221 312 297 314 304 300 326 303 286 290 296 288 288 295 292 313 293 283 249 225 221 224 225 219 216 220 218 207 214 223 225 224 226 226 226 226 227 227 226 225 224 223
198 199 214 249 287 296 296 291 310 318 299 293 292 279 275 287 293 299 304 300 277 237 223 222 223 218 212 205 200 192 207 213 219 226 231 233 234 233 231 230 229 227 225
207 205 200 198 243 270 284 305 309 297 291 287 292 294 291 288 271 268 283 292 298 281 240 215 210 196 168 172 154 142 148 167 188 208 222 236 242 241 236 233 233 232 229
209 199 186 176 221 263 290 296 290 286 281 283 283 282 282 282 284 278 275 281 284 284 275 219 189 145 113 93 109 113 122 127 129 125 116 103 96 196 224 226 231 234 234
233 183 164 149 231 262 271 270 273 277 279 279 278 275 276 275 276 278 278 279 277 284 294 315 105 106 108 105 107 109 107 110 107 100 93 86 80 75 73 74 77 75 69
291 114 148 192 225 246 262 271 280 276 279 286 287 282 278 276 274 273 271 275 280 274 261 240 69 99 105 104 120 112 105 105 103 100 95 90 86 81 78 75 75 74 72
322 313 255 235 240 246 252 261 266 274 280 284 289 291 287 282 278 271 264 254 253 259 252 213 132 113 115 110 130 113 109 108 106 103 100 96 92 88 85 82 78 75 73
337 326 309 284 267 258 253 251 262 272 285 287 286 287 289 286 281 275 267 257 243 239 244 199 152 143 129 120 112 108 110 111 109 108 104 100 96 92 88 85 82 79 76
332 326 313 297 280 268 259 252 253 268 279 290 298 302 302 298 292 284 272 259 246 230 224 179 120 130 122 120 114 114 115 109 110 108 105 101 97 93 89 86 84 82 79
314 314 313 306 292 281 270 260 259 270 281 289 303 312 313 313 307 297 284 264 244 222 192 159 136 129 123 123 122 119 116 111 110 110 107 103 98 93 90 87 84 81 78
301 303 303 302 299 292 284 273 262 258 264 278 298 312 321 325 316 307 292 272 246 217 166 147 137 126 116 122 121 118 115 114 112 114 106 101 99 96 92 89 86 83 80
284 286 291 294 295 294 286 276 267 254 251 256 263 288 323 336 329 315 305 282 228 164 144 140 135 132 122 122 125 127 126 129 131 126 108 108 104 97 95 93 89 85 82
274 275 281 286 292 291 283 279 269 254 237 236 223 209 74 56 27 357 334 340 136 133 135 135 135 133 133 137 138 143 142 140 127 127 126 128 119 106 98 91 88 88 86
265 267 270 275 282 290 305 304 282 262 238 229 204 173 140 119 85 60 62 71 97 124 131 133 137 139 137 138 137 146 143 142 142 157 146 142 130 113 105 100 103 98 93
257 257 262 265 270 281 291 287 269 257 232 218 191 180 168 137 133 109 88 81 80 88 104 120 128 128 134 143 146 159 164 161 148 160 148 132 123 113 112 123 126 117 110
257 259 262 265 266 274 288 275 258 252 240 217 189 174 152 151 152 145 122 101 91 92 109 114 118 117 125 147 172 164 150 139 130 136 136 131 134 128 128 137 150 139 126
257 259 263 259 260 264 272 254 234 247 243 221 189 170 160 158 157 155 133 117 106 98 101 113 118 121 121 116 123 131 133 134 132 129 126 126 136 132 137 147 167 164 149
261 258 259 259 261 259 236 202 204 237 244 223 186 165 165 157 160 160 145 137 130 129 127 122 120 125 118 97 83 82 87 139 145 136 127 120 146 143 146 157 162 174 179
Height
1521 1523 1523 1524 1525 1525 1525 1525 1524 1524 1525 1526 1526 1527 1528 1528 1528 1528 1527 1527 1528 1530 1531 1533 1533 1534 1535 1537 1538 1540 1542 1543 1545 1547 1549 1551 1553 1555 1557 1559 1561 1563 1565
1518 1518 1519 1519 1520 1520 1520 1520 1520 1520 1520 1521 1521 1522 1522 1522 1522 1522 1522 1522 1523 1524 1526 1527 1528 1529 1530 1532 1534 1535 1537 1539 1541 1543 1545 1547 1549 1551 1553 1554 1556 1558 1560
1514 1515 1515 1515 1515 1515 1515 1515 1515 1515 1515 1515 1515 1516 1516 1516 1516 1516 1516 1516 1517 1518 1518 1520 1522 1523 1525 1526 1529 1531 1532 1534 1536 1538 1540 1542 1544 1546 1548 1550 1552 1554 1556
1511 1511 1511 1511 1511 1511 1511 1511 1511 1510 1510 1510 1511 1511 1510 1510 1509 1509 1509 1509 1510 1510 1511 1513 1515 1517 1519 1521 1523 1525 1527 1529 1531 1533 1535 1537 1539 1541 1543 1545 1547 1549 1551
1509 1509 1509 1509 1509 1508 1508 1508 1508 1507 1507 1506 1506 1505 1505 1504 1503 1503 1503 1503 1503 1503 1505 1506 1508 1510 1513 1515 1517 1519 1521 1524 1526 1528 1530 1532 1534 1536 1538 1540 1542 1544 1546
1507 1507 1507 1507 1506 1505 1505 1505 1504 1503 1503 1503 1502 1501 1500 1499 1498 1497 1497 1497 1496 1497 1498 1499 1501 1503 1505 1508 1510 1513 1515 1518 1520 1522 1525 1527 1528 1530 1532 1534 1537 1539 1541
1505 1504 1504 1503 1503 1502 1502 1501 1500 1499 1499 1499 1498 1496 1495 1494 1492 1491 1491 1491 1491 1491 1492 1493 1494 1497 1499 1502 1504 1507 1509 1511 1514 1517 1519 1521 1522 1524 1526 1528 1530 1532 1534
1501 1502 1501 1500 1499 1499 1498 1497 1496 1495 1495 1495 1495 1493 1490 1489 1487 1486 1485 1484 1485 1486 1487 1488 1489 1491 1493 1495 1497 1500 1503 1505 1508 1510 1512 1514 1516 1517 1519 1521 1523 1525 1528
1498 1498 1497 1496 1495 1495 1494 1494 1493 1492 1491 1491 1491 1491 1489 1485 1484 1481 1481 1480 1480 1480 1481 1483 1485 1485 1486 1488 1490 1493 1496 1499 1502 1504 1506 1508 1509 1510 1512 1513 1515 1518 1520
1495 1495 1494 1493 1492 1491 1491 1490 1490 1489 1488 1487 1486 1487 1486 1485 1483 1478 1476 1476 1476 1475 1476 1478 1480 1480 1481 1481 1483 1486 1489 1493 1496 1498 1500 1501 1502 1503 1504 1506 1508 1510 1512
1492 1491 1490 1489 1489 1488 1487 1487 1486 1485 1484 1483 1482 1481 1480 1480 1479 1478 1474 1473 1473 1472 1472 1473 1475 1476 1477 1476 1478 1480 1484 1488 1491 1493 1494 1495 1496 1497 1498 1499 1500 1502 1505
1488 1488 1487 1486 1485 1485 1484 1483 1482 1481 1480 1479 1478 1477 1476 1475 1474 1474 1472 1470 1469 1469 1469 1470 1470 1472 1473 1473 1474 1477 1480 1483 1485 1487 1488 1489 1490 1491 1492 1493 1494 1496 1498
1486 1485 1483 1482 1482 1481 1480 1479 1478 1477 1476 1475 1473 1472 1471 1470 1470 1469 1468 1467 1466 1466 1466 1466 1466 1468 1469 1470 1472 1474 1477 1479 1481 1482 1484 1485 1486 1487 1487 1488 1490 1491 1493
1482 1481 1479 1478 1478 1477 1476 1475 1474 1473 1472 1471 1469 1467 1466 1465 1464 1464 1463 1463 1462 1461 1461 1462 1463 1464 1465 1466 1468 1471 1473 1475 1477 1479 1480 1482 1483 1483 1484 1485 1486 1487 1488
1476 1476 1475 1474 1474 1473 1472 1471 1470 1469 1468 1466 1464 1462 1461 1459 1458 1457 1457 1457 1458 1457 1457 1457 1459 1460 1461 1463 1466 1468 1470 1473 1475 1477 1479 1480 1481 1482 1482 1483 1483 1484 1485
1469 1469 1470 1470 1469 1468 1468 1467 1465 1464 1463 1461 1459 1457 1455 1453 1452 1451 1450 1450 1451 1452 1452 1453 1454 1455 1458 1460 1463 1466 1469 1471 1473 1476 1477 1479 1480 1481 1482 1482 1483 1483 1484
1463 1463 1463 1463 1464 1463 1463 1462 1461 1460 1458 1457 1455 1452 1450 1448 1447 1445 1444 1444 1444 1446 1447 1449 1451 1452 1455 1458 1461 1465 1468 1470 1472 1475 1477 1478 1480 1481 1481 1482 1483 1484 1484
1457 1456 1456 1456 1456 1457 1457 1457 1456 1455 1453 1452 1450 1448 1446 1444 1442 1440 1439 1438 1438 1439 1442 1444 1447 1450 1453 1457 1460 1464 1467 1469 1472 1474 1476 1478 1480 1481 1482 1483 1484 1484 1485
1449 1449 1449 1448 1449 1449 1450 1450 1450 1449 1448 1447 1446 1444 1442 1440 1438 1436 1434 1432 1432 1434 1437 1440 1444 1448 1452 1456 1460 1464 1467 1470 1472 1475 1477 1479 1481 1482 1483 1484 1485 1485 1485
1440 1440 1440 1440 1440 1441 1442 1443 1443 1443 1443 1442 1441 1440 1439 1437 1435 1432 1430 1428 1428 1430 1433 1437 1441 1447 1451 1456 1460 1463 1467 1471 1473 1476 1479 1481 1482 1484 1485 1487 1487 1487 1487
1434 1433 1433 1433 1433 1433 1434 1436 1437 1437 1438 1438 1437 1437 1436 1435 1433 1430 1428 1426 1427 1428 1431 1435 1440 1445 1451 1456 1460 1464 1467 1472 1476 1478 1480 1482 1484 1486 1487 1489 1489 1489 1489
1429 1428 1427 1426 1427 1427 1427 1427 1429 1430 1432 1433 1433 1433 1433 1432 1431 1429 1428 1427 1426 1428 1430 1434 1439 1444 1450 1455 1460 1464 1468 1472 1476 1480 1481 1483 1486 1487 1489 1490 1491 1491 1491
1423 1423 1422 1421 1420 1420 1420 1420 1421 1423 1425 1428 1429 1430 1431 1430 1430 1430 1429 1428 1429 1430 1433 1435 1440 1445 1451 1456 1460 1464 1469 1472 1475 1479 1482 1484 1487 1489 1491 1492 1492 1493 1493
1417 1416 1416 1416 1415 1415 1414 1414 1414 1416 1418 1422 1424 1426 1428 1428 1430 1431 1431 1432 1432 1434 1436 1440 1444 1448 1453 1458 1461 1465 1469 1473 1477 1480 1482 1484 1487 1489 1491 1492 1493 1494 1494
1410 1410 1410 1411 1410 1409 1409 1408 1408 1409 1412 1416 1419 1422 1424 1426 1428 1430 1432 1433 1435 1437 1440 1444 1447 1451 1455 1459 1463 1466 1470 1473 1476 1480 1483 1484 1486 1488 1491 1493 1493 1494 1494
1403 1403 1404 1404 1405 1404 1404 1404 1404 1404 1407 1411 1415 1418 1421 1423 1426 1429 1432 1435 1437 1439 1442 1446 1450 1454 1457 1461 1463 1466 1469 1472 1475 1479 1482 1484 1485 1487 1490 1492 1493 1494 1494